Zurück zum Katalog

EUTE 16C

SESAT 1

AktivKommunikationGEO
NORAD 26243·PAYLOAD·🇪🇺 EU

Gestartet Apr 17, 2000 von Baikonur Cosmodrome

Loading…

TLE

AktuellSource: Space-Track

Epoche: Sep 14, 2026, 13:21 UTC

1 26243U 00019A   26257.55638767  .00000002  00000-0  00000-0 0  9998
2 26243  11.0680  45.2202 0005559 158.6101 203.8200  0.98954699 96230

Verfolge EUTE 16C in Echtzeit mit AllMySat

Download on the App Store